Location: Prestwich
(53.5236°N, 2.2783°W)
Time: 14:42:27
(UTC+01:00)

ISS - Visible Passes

Search period start: 30 September 2022 00:00
Search period end: 10 October 2022 00:00
Orbit: 414 x 417 km, 51.6° (Epoch: 30 September)

Date Brightness Start Highest point End Pass type
(mag) Time Alt. Az. Time Alt. Az. Time Alt. Az.
30 Sep -2.1 20:18:00 10° W 20:20:54 27° SSW 20:22:45 17° SSE visible
01 Oct -2.5 19:29:08 10° W 19:32:14 35° SSW 19:35:20 10° SE visible
01 Oct -0.9 21:07:26 10° SW 21:08:14 11° SW 21:08:51 10° SSW visible
02 Oct -1.2 20:17:36 10° WSW 20:19:40 15° SW 20:21:43 10° S visible
03 Oct -1.5 19:28:23 10° W 19:31:01 21° SSW 19:33:37 10° SSE visible
05 Oct -0.8 19:28:19 10° WSW 19:29:31 12° SW 19:30:43 10° SSW visible
